TimeMDT,TemperatureF,Dew PointF,Humidity,Sea Level PressureIn,VisibilityMPH,Wind Direction,Wind SpeedMPH,Gust SpeedMPH,PrecipitationIn,Events,Conditions,WindDirDegrees,DateUTC
12:53 AM,54.0,33.1,45,29.79,10.0,Calm,Calm,-,N/A,,Overcast,0,2013-05-28 06:53:00
1:53 AM,53.1,35.1,50,29.79,10.0,SW,8.1,-,0.00,,Overcast,220,2013-05-28 07:53:00
2:53 AM,50.0,41.0,71,29.77,10.0,SW,3.5,-,0.00,,Overcast,230,2013-05-28 08:53:00
3:53 AM,48.0,41.0,77,29.77,10.0,SSW,3.5,-,0.00,,Overcast,210,2013-05-28 09:53:00
4:53 AM,48.0,41.0,77,29.75,10.0,South,6.9,-,N/A,,Overcast,180,2013-05-28 10:53:00
5:53 AM,48.0,41.0,77,29.74,10.0,South,4.6,-,N/A,,Overcast,190,2013-05-28 11:53:00
6:53 AM,48.0,41.0,77,29.73,10.0,Calm,Calm,-,N/A,,Overcast,0,2013-05-28 12:53:00
7:53 AM,48.9,42.1,77,29.73,10.0,Calm,Calm,-,N/A,,Mostly Cloudy,0,2013-05-28 13:53:00
8:53 AM,52.0,42.1,69,29.72,10.0,Variable,6.9,-,N/A,,Mostly Cloudy,0,2013-05-28 14:53:00
9:53 AM,53.1,41.0,64,29.71,10.0,SW,4.6,-,N/A,,Partly Cloudy,230,2013-05-28 15:53:00
10:53 AM,55.9,39.0,53,29.70,10.0,SW,9.2,-,N/A,,Overcast,230,2013-05-28 16:53:00
11:53 AM,57.9,41.0,53,29.69,10.0,West,11.5,18.4,N/A,,Mostly Cloudy,260,2013-05-28 17:53:00
12:53 PM,55.0,39.9,57,29.70,10.0,West,10.4,18.4,N/A,,Mostly Cloudy,260,2013-05-28 18:53:00
1:53 PM,57.0,39.0,51,29.70,10.0,Variable,4.6,-,N/A,,Overcast,0,2013-05-28 19:53:00
2:53 PM,55.9,41.0,57,29.72,10.0,SSW,10.4,17.3,N/A,,Overcast,210,2013-05-28 20:53:00
3:53 PM,55.0,45.0,69,29.72,10.0,South,9.2,-,0.00,Rain,Light Rain,180,2013-05-28 21:53:00
4:32 PM,50.0,46.4,87,29.79,1.8,SSE,10.4,21.9,0.10,Rain,Heavy Rain,160,2013-05-28 22:32:00
4:39 PM,50.0,46.4,87,29.79,2.0,SSE,10.4,-,0.12,Rain,Rain,150,2013-05-28 22:39:00
4:53 PM,51.1,46.9,86,29.74,10.0,SSE,10.4,-,0.12,,Overcast,160,2013-05-28 22:53:00
5:53 PM,52.0,45.0,77,29.75,10.0,South,10.4,-,N/A,,Mostly Cloudy,170,2013-05-28 23:53:00
6:26 PM,53.6,42.8,67,29.79,10.0,SW,12.7,17.3,N/A,,Overcast,220,2013-05-29 00:26:00
6:36 PM,53.6,42.8,67,29.80,10.0,SW,10.4,-,N/A,,Overcast,220,2013-05-29 00:36:00
6:53 PM,53.1,42.1,66,29.75,10.0,SSW,12.7,-,N/A,,Overcast,210,2013-05-29 00:53:00
7:53 PM,53.1,43.0,69,29.75,10.0,SSW,8.1,-,N/A,,Overcast,210,2013-05-29 01:53:00
8:53 PM,50.0,43.0,77,29.76,10.0,NW,8.1,-,N/A,,Overcast,310,2013-05-29 02:53:00
9:03 PM,48.2,42.8,82,29.81,10.0,NW,8.1,-,N/A,,Overcast,320,2013-05-29 03:03:00
9:53 PM,48.0,43.0,83,29.78,10.0,West,3.5,-,0.00,Rain,Light Rain,280,2013-05-29 03:53:00
10:25 PM,46.4,44.6,93,29.83,10.0,Calm,Calm,-,0.01,,Overcast,0,2013-05-29 04:25:00
10:53 PM,46.0,44.1,93,29.77,6.0,Calm,Calm,-,0.03,Rain,Light Rain,0,2013-05-29 04:53:00
11:51 PM,46.4,42.8,87,29.82,10.0,Calm,Calm,-,0.01,,Overcast,0,2013-05-29 05:51:00
11:53 PM,46.9,42.1,83,29.76,10.0,Calm,Calm,-,0.01,,Overcast,0,2013-05-29 05:53:00